Location: Bittkow
(50.3000°N, 19.0000°E)
Time: 12:43:29
(UTC+00:00)

PSLV R/B - Pass Details

Date: 19 September 2020
Orbit: 568 x 597 km, 98.2° (Epoch: 22 October)

Event Time Altitude Azimuth Distance (km) Brightness Sun altitude
Rises 03:36:03 0° 160° (SSE) 2,761 7.5 -8.7°
Reaches altitude 10° 03:38:11 10° 159° (SSE) 1,870 6.6 -8.4°
Maximum altitude 03:42:13 79° 74° (ENE) 591 4.1 -7.8°
Drops below altitude 10° 03:46:20 10° 348° (NNW) 1,898 6.6 -7.1°
Sets 03:48:30 0° 347° (NNW) 2,806 7.4 -6.8°
